Theta_e
283 283 283 283 282 282 281 281 280 280 280 280 280 280 279 279 279 279 279 280 280 281 281 282 282 282 282 283 283 283 284 284 284 283 283 284 285 286 286 286 285 285 285 285 285 286 286 286 286 286 287 287 287 287 288 288 288 288 288 288 288 289 291 292 292 293 295 296 297 298 298 298 298 297 297 297 296 296 296 296 297 299 300 300 301
283 283 283 282 282 281 281 280 280 280 280 280 279 279 278 278 278 278 278 279 280 280 281 280 281 281 281 282 282 283 283 283 283 284 284 283 283 284 285 285 284 284 284 284 284 285 285 286 285 286 286 286 286 287 287 288 288 288 288 288 288 288 290 291 292 293 294 295 297 297 296 295 295 295 296 296 296 296 295 294 294 296 298 300 300
282 282 282 282 281 281 280 280 280 280 280 279 279 278 278 278 278 278 278 278 279 280 280 279 280 281 281 281 281 282 282 282 283 283 284 283 282 282 283 283 283 283 284 283 283 284 285 285 285 285 285 286 286 286 286 287 288 288 288 288 288 288 289 290 291 292 293 295 296 297 297 296 295 293 293 295 295 295 294 293 293 294 297 299 299
282 282 282 281 281 281 280 280 280 280 279 279 278 278 278 278 278 277 277 277 277 278 278 278 279 279 278 278 279 280 281 281 282 282 283 283 282 283 283 283 283 283 283 282 283 284 285 285 285 285 285 285 285 285 286 286 287 288 288 289 288 289 290 290 290 291 292 294 295 296 296 297 298 295 292 293 294 293 292 292 293 294 295 295 296
282 281 281 281 281 280 280 280 279 279 279 278 278 278 278 278 278 277 277 277 277 277 276 276 277 276 276 276 276 277 279 280 281 281 282 281 281 282 282 283 283 282 282 282 283 284 284 284 285 285 285 285 285 285 285 285 286 287 288 288 289 289 289 289 289 290 291 293 294 295 296 296 298 297 295 293 292 292 292 292 292 293 293 294 295
282 281 281 281 280 280 280 280 279 279 279 278 278 278 278 278 278 277 277 277 277 276 276 276 276 275 275 275 275 276 277 278 280 280 280 280 280 280 281 282 282 282 282 282 282 283 283 283 283 284 284 284 284 284 284 285 285 286 287 287 288 288 289 289 290 290 291 291 292 294 294 295 294 294 296 296 292 290 291 291 290 291 291 292 293
281 281 281 280 280 280 279 279 279 279 279 279 278 278 278 278 278 277 277 277 277 276 276 276 275 275 275 274 274 275 275 275 276 277 278 278 278 279 280 280 281 281 281 281 281 282 282 282 282 282 283 283 283 283 283 284 284 284 285 286 287 287 288 289 289 290 290 291 291 292 292 292 292 291 293 296 294 290 289 288 289 289 289 290 291
281 281 281 280 280 280 279 279 279 279 279 279 279 278 278 278 278 278 277 277 277 276 276 276 275 275 274 274 274 274 274 274 274 275 276 277 277 278 279 279 280 281 281 281 281 282 281 281 281 281 282 282 282 282 282 282 283 283 284 284 286 287 288 289 289 290 290 290 290 291 291 292 292 291 291 293 293 292 290 287 287 287 287 288 289
281 281 281 280 280 280 279 279 279 279 279 279 279 278 278 278 278 277 277 277 277 276 276 276 275 275 274 274 274 273 273 273 273 274 275 277 277 278 279 279 280 280 280 280 281 281 280 280 280 281 281 281 280 280 281 281 281 281 281 282 283 285 286 288 289 290 290 290 290 290 291 291 291 291 291 291 291 292 292 289 287 286 286 286 288
281 281 280 280 280 280 279 279 279 279 279 279 279 278 278 278 278 277 277 277 277 276 276 276 275 275 274 274 273 273 273 273 273 274 276 277 277 278 278 279 279 280 280 280 280 280 280 280 280 280 279 279 278 278 278 279 279 279 279 280 281 282 284 286 287 289 289 289 290 290 290 290 290 290 290 290 290 291 291 290 289 287 287 287 287
281 281 281 280 280 280 279 279 278 278 279 279 279 278 278 278 277 277 277 277 276 276 276 276 275 274 274 274 273 273 273 273 273 274 276 277 277 277 278 278 279 280 280 279 278 278 279 280 279 278 278 277 277 277 277 277 278 278 278 278 279 280 282 284 285 287 288 289 289 289 290 290 290 290 290 291 291 291 291 291 290 288 288 288 288
281 281 281 280 279 279 279 279 278 278 279 279 279 278 278 277 277 277 277 277 277 276 276 275 275 274 274 273 273 272 272 272 273 274 275 276 276 277 278 279 279 279 279 278 278 278 278 278 278 277 277 276 276 276 276 276 276 276 276 277 278 279 281 283 284 285 287 288 288 288 289 290 290 290 290 291 291 291 291 292 291 289 288 288 289
281 281 280 280 279 279 278 278 278 278 278 278 279 278 278 278 277 277 277 277 276 276 276 275 274 274 273 273 272 272 272 272 272 273 275 275 275 277 278 279 279 278 278 277 277 277 277 277 277 277 276 276 276 276 275 275 275 276 275 276 277 278 279 281 283 284 286 287 287 288 288 288 289 290 290 290 290 291 291 291 291 289 288 288 288
281 281 280 280 279 279 279 278 278 278 278 279 279 278 278 278 277 277 277 277 276 276 275 274 274 273 273 272 272 271 271 271 272 273 274 274 275 276 277 277 277 277 277 277 277 277 276 276 276 275 275 275 275 275 275 275 275 275 275 275 276 278 279 281 282 283 285 286 287 287 287 287 288 289 289 290 290 290 290 291 291 289 287 287 286
281 281 280 280 279 279 279 279 278 278 278 278 278 278 278 277 277 277 277 277 276 275 274 274 273 272 272 272 271 271 271 271 272 273 273 273 274 274 274 274 275 276 276 276 276 275 274 274 274 274 275 275 275 275 275 275 274 275 275 275 276 279 280 281 282 283 284 285 286 287 287 287 288 288 289 289 289 289 290 290 291 289 288 287 285
281 281 280 280 280 280 279 279 279 278 278 278 278 278 277 277 277 277 277 276 275 274 274 273 272 272 271 271 271 270 271 271 272 272 273 273 272 272 272 273 274 274 275 274 274 273 273 273 273 273 274 274 274 274 274 274 274 274 275 275 276 278 281 281 281 282 283 284 285 286 287 287 288 288 288 289 289 289 289 290 290 290 290 289 287
281 281 280 280 280 279 279 279 279 278 278 278 278 277 277 277 277 277 276 275 274 273 273 272 272 271 271 270 270 270 270 270 271 271 272 271 271 271 272 272 273 273 273 272 272 272 272 272 272 273 273 274 274 274 274 274 274 274 275 275 276 277 280 281 281 282 283 283 284 286 286 287 287 288 288 288 288 288 289 289 290 290 290 290 289
281 280 280 280 279 279 279 279 279 278 278 278 277 277 277 277 277 276 275 274 273 273 272 271 271 270 270 270 269 269 269 269 270 270 270 270 271 271 271 271 271 271 271 271 271 271 271 272 272 273 273 273 274 274 274 274 274 275 275 276 276 277 279 281 282 282 283 283 284 285 286 286 287 287 287 288 288 288 288 289 289 289 290 290 290
280 280 280 279 279 279 279 279 278 278 278 277 277 277 277 276 275 274 274 273 272 272 271 271 270 270 270 269 269 269 269 269 269 270 270 270 270 270 270 270 270 270 269 269 269 270 271 272 272 273 273 273 274 274 274 274 275 275 276 276 277 278 279 280 281 282 283 283 284 285 285 286 286 286 286 287 287 287 287 288 289 289 289 289 289
279 279 279 279 279 278 278 278 278 278 278 277 277 277 276 275 274 274 273 272 272 271 270 270 270 269 269 268 268 268 269 269 269 269 269 269 269 269 269 269 268 268 268 268 269 269 271 272 272 272 273 273 274 274 274 275 275 276 277 277 278 278 279 280 281 282 282 283 283 284 285 285 285 285 285 286 286 286 286 287 288 288 289 289 289
279 279 279 278 278 278 278 278 278 278 277 277 276 276 275 274 274 273 272 271 271 270 270 269 269 269 268 268 268 268 269 269 269 269 268 268 268 268 267 267 267 268 268 268 268 269 270 271 271 272 272 273 274 275 275 276 276 277 278 278 279 279 279 280 281 282 282 283 283 284 284 285 285 285 285 285 285 285 286 286 287 288 288 288 289
279 278 278 278 278 277 277 277 277 276 275 275 275 275 274 273 273 272 271 271 270 270 269 269 268 268 268 268 268 268 268 268 268 268 268 268 267 267 267 267 267 267 267 267 268 268 269 269 270 271 271 272 273 275 276 277 277 278 278 278 279 280 280 280 281 282 283 283 283 284 284 284 284 284 284 285 285 286 286 286 286 288 288 288 288
278 277 278 277 276 275 275 275 275 274 274 274 275 275 274 273 272 271 271 270 270 269 268 268 268 267 268 268 268 268 267 268 268 267 267 267 267 266 266 267 267 267 267 267 268 268 269 269 269 270 271 272 273 274 276 277 277 277 278 278 279 280 281 281 281 282 283 283 283 284 284 284 284 284 284 285 285 286 286 286 286 287 288 288 288
276 276 276 275 274 273 273 273 272 272 272 273 274 273 272 271 270 270 270 270 269 268 268 267 267 267 267 267 267 267 267 267 267 266 266 266 266 266 266 266 267 267 267 268 268 268 268 269 270 271 272 272 273 274 274 275 275 275 276 277 278 279 280 281 282 283 283 284 284 284 284 284 284 284 284 284 285 285 285 285 286 287 287 288 288
275 274 272 272 271 271 271 271 271 271 271 271 271 271 270 270 269 269 269 269 268 267 267 267 267 267 267 267 266 266 266 266 266 266 266 266 266 266 266 267 267 267 267 267 268 268 269 270 270 270 270 271 271 272 272 273 273 274 275 275 276 277 278 280 282 283 283 284 284 284 284 284 284 284 284 284 284 285 285 285 285 286 287 288 288
273 271 271 270 270 270 270 270 270 269 269 269 269 269 269 268 268 268 268 267 267 267 267 267 267 267 267 266 266 266 266 266 266 266 266 266 266 266 266 267 267 267 267 267 267 268 270 270 269 269 269 269 269 270 270 271 272 273 274 275 275 276 276 277 280 283 284 284 284 284 284 284 284 284 284 284 284 285 285 285 285 286 287 288 288
272 270 270 270 270 270 269 269 268 268 268 268 267 268 268 268 267 267 267 267 266 266 266 266 267 266 266 266 266 266 266 266 266 266 266 266 266 266 267 267 267 267 267 267 267 268 269 269 268 268 268 268 269 269 270 270 271 272 273 274 274 275 276 276 278 280 283 284 284 284 284 284 284 284 284 284 284 285 285 285 285 285 286 287 288
271 270 269 269 269 268 268 267 267 267 267 267 267 267 267 267 266 266 266 266 266 266 266 266 266 266 266 266 266 266 266 266 266 266 266 266 266 266 267 267 267 267 267 267 267 268 268 268 268 268 268 268 268 269 269 270 271 271 272 273 274 274 275 276 277 278 281 283 284 284 285 285 285 285 285 285 285 285 285 286 286 286 286 287 287
270 269 268 267 267 267 267 267 266 267 267 267 266 266 266 265 265 265 266 266 266 266 266 266 266 266 266 266 266 266 266 266 266 266 266 266 266 267 267 267 267 267 267 267 267 267 267 267 267 267 267 268 268 268 269 270 271 271 271 272 273 274 275 276 277 278 280 281 283 284 284 285 285 285 285 285 285 286 285 285 285 286 286 286 287
269 269 267 266 266 266 266 266 266 266 266 266 265 265 265 265 265 265 265 265 265 265 265 265 266 266 266 266 266 266 266 266 266 266 266 266 266 267 267 267 267 267 267 267 267 267 267 267 267 267 267 268 268 268 269 270 271 272 272 273 273 274 275 276 277 279 280 281 282 283 283 283 284 284 284 284 285 285 285 285 285 286 286 286 286
269 267 266 265 266 266 265 265 265 265 264 265 265 264 264 264 264 265 265 265 265 265 265 265 265 265 265 266 266 266 266 266 266 266 266 266 266 266 266 267 267 267 267 267 267 267 267 267 267 268 268 268 268 269 269 270 272 273 273 274 274 274 275 276 277 279 280 281 282 283 283 283 283 283 284 284 284 285 285 285 286 286 286 285 286
267 266 265 265 265 265 264 264 264 263 264 264 264 264 264 264 264 264 264 264 264 264 265 265 265 265 265 265 265 265 265 266 266 266 266 266 266 266 266 267 267 267 267 267 267 267 267 268 268 268 268 268 269 269 270 271 272 273 274 275 275 275 275 276 277 278 280 281 282 283 283 283 283 283 284 284 284 284 285 285 285 285 286 285 285
265 264 264 265 265 264 263 263 263 263 263 263 263 263 263 264 264 264 264 264 264 264 264 264 264 265 265 265 265 265 265 265 265 265 266 266 266 266 266 267 267 267 267 267 267 268 268 268 268 268 269 269 269 270 271 272 273 274 275 275 276 276 276 276 277 278 280 281 282 283 284 284 284 284 284 284 285 284 284 284 285 285 285 285 285
264 264 264 264 264 263 262 262 262 262 262 263 263 263 263 263 263 263 263 263 264 264 264 264 264 264 264 265 265 265 265 265 265 265 265 266 266 266 266 267 267 267 267 267 268 268 268 268 268 269 269 269 270 271 272 273 274 275 276 276 276 277 277 277 277 277 279 281 282 283 283 284 284 284 284 285 285 285 285 284 284 285 285 285 285
264 263 264 263 262 262 262 261 262 262 262 262 262 262 263 263 263 263 263 263 263 263 264 264 264 264 264 264 264 264 265 265 265 265 265 265 266 266 266 266 267 267 267 267 268 268 268 269 269 269 270 270 271 273 273 274 275 276 277 277 277 277 277 277 277 277 278 280 282 283 284 284 284 284 284 284 284 284 284 284 284 284 285 285 285
263 263 263 262 261 261 261 261 261 261 261 262 262 262 262 263 263 263 263 263 263 263 263 263 263 264 264 264 264 264 264 264 265 265 265 265 266 266 266 266 267 267 267 268 268 268 269 269 270 270 270 271 273 275 275 275 276 277 278 278 278 278 278 278 278 278 278 279 280 282 283 284 284 284 284 284 284 284 284 284 285 285 285 285 284
263 262 262 261 261 261 261 261 261 261 261 261 261 262 262 262 262 262 262 263 263 263 263 263 263 263 263 264 264 264 264 264 264 265 265 265 265 266 266 266 267 267 268 268 268 269 269 270 270 271 271 272 274 276 277 277 279 280 281 280 279 279 279 279 278 278 278 279 280 281 282 282 282 283 283 283 283 284 284 284 284 285 285 285 284
262 261 261 261 260 260 260 260 260 260 261 261 261 262 262 262 262 262 262 262 262 262 263 263 263 263 263 263 263 263 264 264 264 264 265 265 265 266 266 266 267 267 268 268 268 269 269 270 271 271 272 273 274 276 277 278 280 281 282 282 281 280 280 280 279 279 279 279 279 280 281 281 281 281 282 283 283 284 284 284 284 285 285 285 284
261 261 261 260 260 260 260 260 260 260 260 260 261 261 262 262 262 262 262 262 262 262 262 262 263 263 263 263 263 263 264 264 264 264 265 265 265 266 266 267 267 268 268 268 269 269 270 271 272 272 273 274 275 276 278 278 279 281 281 282 282 282 281 280 280 280 280 279 280 280 280 280 281 281 281 282 283 284 284 284 284 284 284 284 285
260 260 260 260 260 260 260 259 260 260 260 260 261 261 261 261 261 261 262 262 262 262 262 262 262 262 263 263 263 263 264 264 264 264 265 265 266 266 267 267 267 268 268 268 269 270 270 272 273 274 274 275 276 277 278 279 279 280 281 281 281 282 282 281 281 281 281 280 280 280 280 280 281 281 281 282 283 284 284 285 285 284 284 285 285
260 260 260 260 259 259 259 259 259 259 260 260 261 261 261 261 261 261 261 261 261 262 262 262 262 262 262 263 263 264 264 264 265 265 265 266 266 267 267 267 268 268 268 269 270 270 271 272 274 274 275 277 277 277 278 279 279 279 280 280 280 281 281 282 282 282 282 282 282 281 281 281 281 282 283 283 284 284 285 285 285 285 285 285 285
259 259 259 259 259 259 259 259 259 259 259 260 260 261 261 261 261 261 261 261 261 261 261 262 262 262 262 263 263 264 264 265 265 265 266 266 267 267 268 268 268 269 269 269 270 271 272 273 274 276 277 278 279 279 279 279 279 279 280 280 280 280 280 281 281 281 282 282 283 283 283 283 283 283 284 284 284 285 285 285 285 285 285 285 285
259 259 259 259 259 258 258 258 258 259 259 260 260 260 260 260 260 260 261 261 261 261 261 261 262 262 263 263 264 264 264 265 266 266 266 267 267 268 268 269 269 269 269 270 271 272 272 273 275 277 278 279 280 280 279 279 279 279 279 280 280 280 280 280 280 281 281 281 282 283 283 284 284 284 285 285 285 285 285 285 285 285 285 285 285
259 259 259 258 258 258 258 258 258 259 259 260 260 260 260 260 260 260 260 261 261 261 261 261 262 262 263 263 264 264 265 265 266 266 267 267 268 268 269 269 269 270 270 271 272 272 273 274 275 276 278 279 280 280 280 279 279 280 280 280 280 280 280 280 280 281 281 281 281 281 282 282 283 284 284 285 285 285 285 285 285 285 285 285 285
258 258 258 258 258 258 258 258 258 258 259 259 259 260 260 260 260 260 260 261 261 261 261 261 262 262 263 263 264 264 265 266 266 267 267 267 268 269 269 270 270 271 271 272 272 273 274 275 275 276 278 279 280 280 280 280 280 280 280 280 280 280 280 280 281 281 281 281 281 281 281 281 282 283 283 284 284 285 285 285 285 285 285 285 285
258 258 258 258 258 257 257 258 258 258 259 259 259 259 259 259 260 260 260 260 260 261 261 261 262 262 263 263 264 265 265 266 266 267 267 268 269 269 269 270 271 272 272 273 274 274 275 276 277 278 279 280 281 281 281 281 280 280 280 280 280 280 280 280 281 281 281 281 281 281 281 281 281 282 282 283 283 283 284 285 285 285 285 285 285
258 258 257 257 257 257 257 257 258 258 258 258 259 259 259 259 260 260 260 260 260 261 261 261 262 262 263 263 264 265 265 266 267 267 268 269 269 270 270 271 272 273 273 274 275 276 277 277 279 280 280 281 281 281 281 281 280 280 280 280 279 279 280 280 280 280 280 280 281 281 281 281 281 281 281 282 282 283 283 284 284 285 285 285 285
257 257 257 257 257 257 257 257 257 258 258 258 258 259 259 259 259 260 260 260 260 260 261 261 262 262 263 263 264 265 265 266 267 267 268 269 270 271 272 273 273 274 275 275 277 278 278 279 280 281 281 281 281 281 281 281 281 280 280 279 279 279 279 279 280 280 280 280 280 281 281 281 281 281 282 282 282 283 283 283 284 285 285 285 285
257 257 257 257 256 257 257 257 257 258 258 258 258 258 259 259 259 260 260 260 260 260 261 261 262 262 263 263 264 265 265 266 267 268 269 270 270 271 273 274 274 275 276 277 278 279 279 280 281 281 281 281 281 281 281 281 281 280 280 280 279 279 279 279 279 279 280 280 280 280 280 281 281 281 281 282 282 282 282 282 282 283 284 284 284
257 257 257 256 256 256 256 257 257 257 258 258 258 258 259 259 259 260 260 260 260 260 261 261 262 262 263 263 264 265 265 266 267 268 269 270 271 272 273 274 274 275 276 277 277 278 279 280 280 281 281 281 281 281 281 280 280 280 280 280 279 279 279 279 279 279 279 279 279 279 278 279 280 280 280 280 280 280 280 280 280 281 282 282 282
256 256 256 256 256 256 256 257 257 257 257 258 258 258 259 259 259 260 260 260 260 260 261 261 262 262 263 263 264 265 265 266 267 268 268 269 271 272 273 274 274 274 275 275 276 277 278 279 279 280 279 279 280 280 280 280 279 279 279 279 278 278 278 278 278 278 278 277 277 276 276 276 277 277 277 277 278 278 278 278 278 278 279 280 280
Wind_Speed
11 14 10 10 12 12 12 11 13 15 14 14 16 17 20 24 26 26 28 29 29 28 28 28 27 28 28 28 29 30 30 30 29 27 25 24 23 22 22 21 21 20 19 18 18 18 19 19 18 17 17 17 17 18 20 20 18 16 16 15 15 15 16 16 13 12 13 13 14 19 26 29 32 35 37 40 42 43 43 43 44 44 42 39 36
8 9 7 8 8 10 10 9 12 12 11 11 13 16 19 23 24 26 28 27 27 27 26 27 27 27 27 28 30 30 29 30 30 28 24 23 23 23 23 22 22 21 21 20 20 20 19 18 18 17 16 16 16 16 17 19 20 18 17 16 16 16 16 16 14 11 8 7 6 8 12 17 23 29 34 38 40 42 43 42 42 44 44 42 39
4 5 6 7 7 8 8 9 12 11 8 8 12 15 18 21 23 26 26 25 25 24 24 26 26 25 26 27 28 29 28 28 29 27 24 24 24 23 23 24 24 23 22 21 21 20 19 18 17 15 15 15 16 16 16 17 19 20 19 17 17 17 16 15 14 11 9 8 5 4 4 5 10 17 26 36 40 40 41 41 41 42 44 43 42
3 3 5 7 8 9 8 9 12 9 5 7 12 14 17 19 22 24 23 22 23 22 24 25 24 24 26 27 27 27 27 27 26 26 25 25 25 25 25 26 24 23 23 21 20 19 18 17 16 14 13 13 14 15 15 15 16 18 20 20 19 17 16 15 14 13 12 9 5 3 2 2 5 8 16 28 35 36 36 39 41 43 43 43 44
3 3 4 7 9 10 8 9 12 8 3 7 12 14 17 20 21 22 20 20 21 21 24 24 23 25 27 28 29 28 28 27 25 25 25 26 27 27 28 27 25 24 23 20 19 18 17 16 16 14 13 12 13 14 15 15 15 17 19 21 20 18 18 18 16 15 14 12 10 6 2 2 3 2 6 13 23 32 36 38 41 42 42 43 44
3 3 4 7 10 11 10 10 13 9 3 8 12 14 18 20 21 22 20 21 21 21 22 22 23 25 26 26 26 25 26 26 26 26 27 28 28 28 29 28 27 25 22 21 18 17 17 17 17 17 16 15 15 14 15 15 15 16 17 19 22 22 22 20 18 17 16 16 16 15 11 8 5 4 2 3 10 23 31 34 37 38 40 42 44
3 4 5 8 10 11 11 12 14 11 6 8 12 13 16 19 21 22 21 22 21 20 21 20 21 23 24 24 23 22 23 25 29 30 30 31 30 30 30 29 29 26 23 21 19 17 17 17 17 17 18 18 18 17 17 16 16 16 16 18 20 22 23 20 19 19 18 16 18 19 19 17 14 9 5 2 1 9 18 25 32 34 36 39 42
3 4 5 8 12 13 13 13 15 13 9 9 11 12 14 18 20 20 20 20 20 19 20 19 19 21 23 24 23 24 25 28 31 31 31 32 31 31 30 30 30 28 25 22 19 18 18 17 17 17 17 17 17 18 19 19 18 18 18 17 18 19 22 22 22 21 18 17 17 18 18 17 17 15 14 9 2 1 6 13 22 28 31 35 39
4 5 6 10 14 15 15 15 15 14 12 13 12 12 14 16 16 16 16 17 17 17 18 19 20 21 22 23 24 26 28 32 34 32 31 31 30 31 30 30 30 28 27 23 19 18 17 16 17 18 18 18 17 18 19 19 20 21 20 19 18 18 20 23 24 24 22 21 18 16 17 16 15 16 17 15 9 5 3 4 9 16 21 31 38
5 7 10 13 16 17 17 17 17 16 15 16 15 13 13 13 13 13 14 15 15 15 16 18 19 21 22 23 24 28 31 34 35 32 30 28 28 29 29 29 29 29 27 22 18 17 16 16 17 17 18 18 18 19 19 20 21 22 23 22 21 21 20 21 24 25 25 25 23 19 17 15 11 9 11 13 11 8 5 3 5 8 12 23 34
6 8 12 16 18 20 20 19 20 19 17 18 18 14 12 13 13 13 15 15 14 15 15 17 18 19 21 22 24 28 32 34 34 31 28 26 27 29 30 29 29 28 24 19 16 15 16 18 18 18 18 18 19 20 21 22 24 25 25 25 25 24 22 22 23 25 25 26 25 23 21 18 14 10 10 13 10 6 5 4 5 10 12 17 23
8 8 11 14 16 18 20 21 22 21 19 20 20 17 14 13 13 14 16 16 15 16 16 17 18 19 20 22 25 28 31 33 33 30 27 26 27 29 29 27 25 22 19 17 16 15 17 19 17 17 18 19 21 23 24 26 27 28 28 27 27 26 25 23 23 24 25 26 26 25 24 24 23 20 17 16 14 11 9 5 4 9 11 14 17
9 8 9 10 13 16 19 21 23 23 21 22 22 20 16 15 15 16 18 18 17 16 16 17 19 20 21 24 27 30 32 34 34 30 27 25 26 26 23 19 16 15 15 16 17 17 17 17 16 17 19 21 23 25 28 29 29 30 29 28 27 27 27 25 24 24 25 26 27 26 25 25 26 25 23 20 18 16 12 6 6 8 7 9 13
8 9 8 9 13 17 19 21 23 24 24 24 25 23 18 17 18 18 20 20 16 15 15 18 20 21 23 26 29 31 33 35 33 29 27 25 25 23 20 18 16 16 17 18 17 16 16 16 17 19 21 24 27 28 30 31 30 29 29 29 28 28 29 27 25 25 26 27 27 26 26 26 27 27 25 22 19 18 14 9 6 7 6 5 8
9 9 9 13 18 21 22 23 23 24 25 25 25 23 19 18 19 19 21 19 15 14 16 18 21 24 26 29 31 33 33 32 31 28 27 26 25 21 21 24 23 19 17 16 15 16 17 19 21 22 25 27 29 31 32 32 30 29 29 29 28 28 29 28 27 26 26 28 29 29 28 28 28 27 26 25 23 21 19 17 10 5 5 4 3
10 11 12 18 24 25 25 25 25 25 25 25 24 21 18 18 20 21 19 15 13 15 17 20 23 26 29 31 33 33 32 31 30 28 26 25 24 24 25 26 22 18 17 17 18 19 21 23 24 26 27 29 31 32 32 32 30 28 28 28 28 28 28 28 28 27 27 28 30 31 29 29 29 28 27 26 26 25 23 23 18 10 6 4 3
11 11 13 19 24 25 25 26 26 26 26 26 23 18 17 22 22 18 13 11 14 17 20 23 25 28 30 31 33 33 32 31 30 28 26 25 25 25 24 22 20 18 17 18 20 22 24 25 26 27 28 30 32 32 31 30 29 28 28 28 28 27 27 28 28 27 27 28 30 31 30 30 30 28 28 27 25 25 25 25 23 19 13 6 4
12 13 16 19 23 25 26 27 27 26 26 23 19 17 22 23 18 11 9 13 17 20 23 25 27 29 30 31 33 33 32 31 30 29 28 26 25 22 21 21 20 17 15 17 21 23 25 26 26 28 29 30 31 30 30 29 29 29 28 28 28 27 26 29 29 28 28 27 28 30 30 30 29 28 27 28 26 25 25 26 26 25 22 14 6
13 14 14 16 22 26 28 29 27 26 23 19 18 21 21 15 9 9 14 18 20 23 25 27 28 29 30 32 34 32 31 29 26 24 22 20 19 18 18 18 18 18 19 22 24 25 25 25 25 26 27 27 28 28 29 29 28 28 28 28 27 26 27 29 29 28 28 27 27 29 29 28 29 28 27 27 26 25 25 26 26 26 26 23 16
14 13 12 15 21 25 29 30 27 24 21 22 23 20 14 9 11 15 19 21 23 25 26 28 29 30 32 33 32 29 27 25 21 19 18 17 17 17 18 19 21 23 24 24 26 26 24 23 23 23 25 26 27 27 28 28 27 26 26 27 26 26 28 29 29 29 28 27 27 28 29 29 28 27 27 26 25 24 25 25 25 26 26 26 24
13 12 12 16 20 24 27 28 26 23 24 27 25 17 12 14 17 20 21 23 25 25 27 29 29 31 32 31 28 25 23 22 21 20 18 18 19 19 20 22 24 25 25 26 27 25 24 24 24 24 24 24 25 25 26 25 24 23 24 24 25 26 28 29 28 28 28 27 28 28 29 30 29 26 26 26 25 24 24 24 24 25 25 27 26
12 13 15 16 19 24 27 28 28 27 30 34 27 17 17 20 21 23 24 24 24 26 28 29 30 31 30 26 24 23 22 22 21 19 19 20 21 22 23 24 25 26 26 26 26 26 26 27 28 27 26 25 24 24 24 23 22 22 23 23 24 27 28 28 27 28 28 26 27 29 29 30 28 27 26 25 24 24 23 23 24 24 24 26 27
14 16 17 19 22 26 29 30 31 31 33 34 27 19 20 22 23 25 26 26 26 27 28 29 30 29 26 23 23 22 23 23 21 19 21 22 23 25 26 26 26 26 25 25 26 26 26 27 28 28 27 25 23 22 20 19 18 19 20 21 21 23 26 27 27 27 28 27 27 28 30 29 27 26 26 25 25 25 24 23 23 24 24 25 27
16 15 19 23 26 29 30 31 32 31 31 31 28 24 23 24 26 28 29 29 28 28 30 30 29 26 24 23 23 22 23 23 22 23 25 26 26 26 26 25 25 25 24 24 24 25 26 26 25 23 20 18 17 17 17 18 18 18 19 20 21 21 22 25 28 29 27 27 28 28 29 28 26 25 26 25 25 25 25 24 23 24 25 25 26
15 15 18 23 25 27 28 28 28 30 30 30 31 29 28 28 30 30 29 28 29 31 32 30 27 24 22 22 22 22 22 23 24 26 28 28 27 26 25 24 23 22 22 22 23 25 25 22 17 15 17 18 18 19 19 20 21 21 20 21 22 21 22 22 25 30 29 27 28 29 29 28 26 26 27 26 25 26 25 25 23 23 24 25 25
14 15 17 19 21 24 27 27 27 29 29 29 32 33 31 30 29 28 28 29 32 33 31 27 24 23 22 22 22 22 23 24 26 27 28 27 27 25 24 22 22 22 23 24 25 24 19 16 15 19 22 23 24 25 23 22 23 23 21 21 22 22 23 24 22 24 27 28 28 29 30 28 26 26 27 26 25 26 26 25 24 23 23 23 23
11 13 14 16 18 22 27 28 29 31 31 31 32 31 28 27 28 30 30 31 32 30 27 25 23 22 23 23 23 24 25 26 26 27 27 26 25 23 22 23 23 24 24 24 24 22 19 19 22 25 26 26 26 27 27 26 26 25 23 23 23 24 24 25 23 20 22 26 28 29 28 27 27 26 27 26 26 27 27 26 25 24 23 22 21
12 13 16 17 17 21 27 30 31 32 32 30 29 28 27 27 30 32 30 29 29 27 25 24 23 23 24 25 25 25 25 25 24 24 24 24 23 23 24 25 25 24 24 24 24 24 25 27 28 28 28 29 29 29 30 30 29 28 27 26 25 24 24 25 24 22 21 22 25 26 25 25 25 25 26 26 27 27 28 28 27 25 23 21 20
18 17 17 17 19 23 28 30 29 29 30 28 28 30 30 30 30 30 28 28 27 26 25 25 24 25 25 25 25 24 24 23 23 23 24 23 24 24 24 24 24 24 24 24 25 26 27 29 29 28 28 28 28 29 30 31 32 32 30 28 27 25 24 24 23 23 23 22 22 22 23 23 23 24 25 25 27 28 27 27 27 26 23 20 18
20 18 16 17 21 24 26 28 29 30 32 30 29 31 31 30 29 29 28 28 27 27 26 26 25 25 26 26 26 25 24 24 25 24 24 24 24 23 23 23 23 23 24 24 26 26 27 27 27 27 28 27 28 28 28 29 30 30 30 29 27 26 25 23 22 22 23 22 20 21 22 22 23 23 23 23 25 27 27 26 27 26 24 21 19
19 18 18 18 21 23 25 29 31 33 34 31 29 31 30 29 29 29 29 29 28 27 27 26 26 26 26 26 26 26 25 25 25 25 24 24 24 23 23 23 23 23 23 24 24 24 25 26 26 27 27 27 28 28 26 26 27 28 28 28 28 27 26 24 23 22 23 23 21 21 21 22 23 23 22 21 23 26 27 27 28 27 24 22 20
18 18 19 19 20 23 27 30 32 33 33 30 30 31 30 30 30 30 29 29 28 27 27 27 27 26 27 27 26 26 26 26 25 25 25 24 24 24 23 23 23 22 22 23 23 24 25 25 25 26 26 27 28 27 25 25 26 27 27 27 28 28 27 27 25 24 23 23 23 22 22 22 22 21 20 20 21 24 26 27 28 28 26 23 21
16 18 20 20 22 25 29 31 31 30 31 31 30 31 30 30 30 30 30 28 28 28 27 27 27 27 27 27 27 27 27 26 26 25 25 25 24 24 24 23 23 22 22 22 23 23 24 25 26 26 26 27 28 27 24 24 25 26 26 27 27 28 29 29 28 26 24 23 23 23 22 22 21 20 19 18 19 22 24 25 27 28 28 25 22
17 19 21 23 26 28 30 31 30 30 31 30 30 30 30 30 31 30 29 29 28 28 28 28 28 28 28 28 28 28 27 27 27 26 26 25 24 24 24 23 23 22 21 22 23 23 24 26 27 27 27 28 28 26 23 23 24 24 25 26 28 28 28 29 29 28 25 24 23 23 23 22 21 19 19 19 19 21 22 24 26 27 28 27 24
17 20 23 26 28 30 31 32 30 31 31 30 30 31 31 31 30 30 29 29 29 28 28 28 28 28 29 29 29 29 29 28 27 27 26 25 24 24 24 23 23 22 22 23 24 25 26 27 27 27 27 27 27 24 22 22 23 23 23 25 27 29 29 29 30 30 29 26 24 23 23 22 21 20 20 20 20 21 22 23 25 27 28 28 27
21 24 25 27 29 30 31 31 31 31 31 30 31 32 31 31 30 30 29 29 29 29 28 28 29 29 29 30 30 30 29 29 28 28 27 25 25 25 26 25 24 23 23 24 24 26 27 27 27 25 24 26 25 22 21 21 22 24 25 27 28 28 28 29 29 30 31 30 27 24 22 21 21 21 21 20 20 21 22 22 23 25 26 27 28
27 28 27 28 30 31 31 31 32 31 31 30 31 31 31 31 30 29 29 29 29 29 29 30 30 30 30 31 30 30 30 29 29 28 27 26 27 27 28 28 26 25 25 25 26 27 27 26 26 24 23 24 24 23 21 20 19 19 19 24 29 28 26 28 29 29 30 31 30 29 27 25 25 24 23 22 22 22 23 24 23 23 24 25 26
28 29 29 29 31 31 31 31 31 31 31 31 31 31 30 29 29 29 30 29 29 30 31 31 31 31 32 32 31 31 30 30 29 28 28 28 29 29 30 28 26 25 26 26 27 27 26 24 23 23 22 22 23 21 19 18 17 16 14 11 20 26 26 25 26 27 29 30 30 31 31 30 28 26 25 23 23 23 24 25 25 24 24 24 25
28 28 28 30 32 31 31 32 31 32 33 32 31 30 29 28 29 29 29 29 30 31 32 32 32 33 33 33 32 32 31 31 31 30 30 31 31 31 30 27 25 24 25 26 25 26 26 25 23 23 21 20 20 19 16 14 14 14 14 12 8 17 23 24 24 24 26 28 29 30 31 32 31 30 29 26 25 25 26 27 27 25 23 24 25
29 29 28 29 30 30 31 32 32 33 33 32 30 29 28 28 29 29 28 29 31 33 33 33 34 34 35 35 34 32 31 32 32 30 30 31 31 31 30 28 27 26 26 27 27 25 26 26 25 24 23 21 20 18 15 13 13 13 12 12 10 8 12 17 21 22 23 25 27 29 30 32 33 33 32 29 27 27 28 29 28 25 23 24 27
28 29 29 29 29 29 30 31 32 33 33 31 29 28 27 28 29 28 29 31 33 34 34 34 35 36 36 36 35 33 32 32 31 30 30 31 31 30 29 28 28 28 27 28 27 25 25 27 26 25 24 22 21 19 16 13 13 13 12 11 10 9 7 7 11 16 18 21 24 27 29 31 32 32 31 30 28 28 29 30 29 28 27 26 26
28 28 28 28 29 29 29 31 32 32 31 30 29 28 28 28 28 28 31 34 35 36 36 36 36 36 36 35 34 33 33 32 32 31 31 32 31 30 28 27 26 26 26 26 26 24 24 26 28 28 26 24 21 18 16 13 12 12 12 10 10 10 9 8 8 9 11 14 16 20 24 27 28 28 28 28 27 27 28 30 30 30 29 27 24
28 28 28 28 28 28 29 31 32 31 30 29 28 28 28 28 29 31 34 36 36 36 37 36 36 35 35 34 34 35 34 32 32 31 30 30 30 29 27 25 23 24 24 24 24 24 24 26 29 29 28 26 21 17 15 13 11 10 10 10 10 10 11 11 11 12 11 10 11 13 16 18 21 22 24 25 25 26 26 28 30 30 29 27 25
27 28 28 28 28 28 29 30 31 30 29 28 28 28 29 30 32 35 37 37 37 37 37 36 35 35 35 35 34 34 34 32 32 30 28 28 28 28 27 25 23 22 22 22 24 24 23 23 25 26 27 25 21 16 13 10 9 8 9 9 9 9 10 11 13 14 14 13 13 13 13 14 16 17 19 20 23 25 27 28 29 28 28 29 27
27 27 27 28 28 28 29 30 30 30 29 28 29 29 30 32 35 38 38 37 38 38 37 36 35 35 35 35 35 34 33 32 31 30 28 27 26 26 25 25 24 23 21 21 23 23 22 21 21 22 22 22 19 16 13 10 9 9 8 7 7 8 9 11 12 14 14 14 13 13 14 14 14 15 16 16 18 21 24 26 28 27 26 28 28
28 28 28 29 28 28 29 30 31 30 29 30 31 31 31 34 38 38 37 37 38 39 37 35 35 35 34 34 34 34 34 33 32 30 28 26 25 24 23 23 23 23 22 22 23 24 23 21 20 19 18 18 19 18 15 13 12 11 10 9 7 6 6 8 11 13 13 13 13 14 14 15 15 15 16 17 17 18 19 21 24 26 27 27 28
27 28 29 29 29 29 30 30 31 31 31 32 34 34 34 36 37 37 37 38 38 38 36 35 35 34 33 32 32 33 34 34 33 31 28 26 26 25 23 22 21 21 22 22 23 22 20 18 18 17 15 16 18 16 14 14 15 14 14 14 13 11 7 3 6 9 11 12 13 13 13 14 15 15 16 17 17 16 17 18 21 23 26 28 28
27 28 29 29 29 29 30 29 30 32 34 35 36 36 36 36 36 37 38 39 38 37 36 35 33 32 32 31 31 31 32 33 33 33 29 26 26 25 24 22 21 21 22 21 20 20 20 20 19 16 15 15 15 13 12 13 14 15 15 15 15 14 12 7 4 5 7 10 11 12 12 13 14 14 14 14 13 13 15 18 21 23 26 27 27
27 27 28 29 30 30 30 30 30 32 34 36 36 37 37 37 36 37 38 38 38 36 34 33 32 31 31 31 30 30 30 30 31 32 32 29 27 24 22 21 23 23 22 22 22 21 24 24 20 15 14 14 13 14 14 13 13 13 14 14 13 13 11 9 6 3 2 5 6 6 7 9 11 11 11 10 10 10 10 11 15 20 24 24 24
26 27 28 30 31 31 31 30 31 32 34 35 36 37 37 37 36 37 37 37 37 34 32 31 31 30 30 30 30 30 30 30 29 29 31 32 31 27 21 19 22 25 24 24 24 25 27 28 24 21 20 19 17 16 16 15 14 14 13 12 11 10 9 8 7 4 1 3 5 5 5 5 7 9 9 9 9 10 10 9 9 14 19 21 21
26 27 29 32 33 33 32 31 32 33 34 35 36 37 38 38 37 38 38 38 35 32 29 29 29 29 30 30 29 29 29 29 28 28 28 28 30 31 28 24 24 25 24 25 26 27 28 29 27 24 24 22 20 18 17 15 15 14 13 12 12 10 8 8 8 6 3 5 7 7 7 6 7 7 7 8 9 11 13 13 12 13 16 17 19
Wind_Direction
54 43 38 51 48 30 23 17 6 4 7 11 17 18 13 10 6 3 360 358 0 358 354 351 347 343 341 339 335 330 328 325 323 323 323 323 318 312 310 311 312 312 312 310 309 308 309 311 312 309 305 302 301 301 299 296 294 297 301 301 300 296 291 289 294 298 283 282 286 259 240 238 235 231 229 228 226 224 222 221 220 219 220 220 220
53 36 29 46 37 20 17 12 4 2 10 21 24 20 13 12 9 4 1 359 359 356 353 350 347 344 341 338 334 330 327 325 321 320 318 319 319 315 311 310 311 312 311 311 310 307 306 307 311 314 315 310 305 303 299 295 291 290 291 292 297 293 288 287 288 294 278 257 278 268 243 237 233 230 230 229 228 227 224 222 221 219 219 219 218
40 17 17 22 6 2 3 2 358 355 14 29 22 18 14 12 9 4 2 360 357 354 351 348 347 346 343 340 336 330 327 325 323 319 314 313 316 316 312 311 311 310 309 309 307 303 301 301 304 311 318 319 316 309 303 298 292 290 286 283 291 291 283 283 282 278 266 250 255 257 233 229 231 228 230 230 228 227 226 223 222 221 220 219 218
2 350 3 359 344 342 344 349 347 342 14 28 18 18 14 11 8 4 2 359 355 353 350 348 346 346 345 341 337 332 327 325 325 322 317 314 314 312 310 310 309 307 306 305 300 295 293 294 297 303 311 317 319 315 309 301 294 290 286 282 283 282 277 278 278 271 262 251 238 237 212 209 237 223 224 229 226 225 227 225 223 222 221 219 217
347 332 343 340 329 325 325 330 333 330 356 15 13 15 10 8 4 0 359 356 352 349 348 350 348 347 347 344 341 336 330 327 325 323 319 316 314 310 307 305 303 302 301 298 293 290 289 291 293 295 300 305 309 313 311 305 297 290 285 282 281 277 273 273 271 264 258 249 235 234 234 200 251 246 218 227 221 219 224 225 223 222 220 219 218
329 313 315 315 311 314 312 314 322 315 312 357 3 5 3 2 357 355 355 351 346 344 345 347 345 346 347 345 342 336 329 323 319 316 314 312 309 308 307 302 297 295 294 289 286 285 286 289 292 292 292 295 300 306 309 307 303 296 288 283 282 279 275 269 262 258 257 255 245 240 243 245 272 315 299 234 212 217 222 222 222 221 220 219 219
307 288 284 296 301 305 301 302 314 308 295 332 344 351 355 354 351 350 348 344 340 336 338 339 337 340 341 338 335 330 324 317 311 307 305 305 304 302 302 299 295 291 285 281 278 276 280 285 289 289 289 290 293 296 300 304 305 302 296 289 285 282 276 264 255 257 255 254 252 248 248 252 258 260 257 285 234 220 222 220 222 222 220 219 219
282 274 271 286 291 292 290 295 310 307 284 295 318 334 345 346 344 343 339 337 333 328 329 329 329 331 332 330 326 323 320 315 310 304 300 301 299 297 296 296 294 288 280 275 268 267 274 279 280 282 283 285 288 289 291 296 299 298 296 295 291 285 277 265 257 254 248 249 253 250 248 249 251 248 246 250 274 269 223 219 224 223 222 221 221
265 271 270 279 282 282 284 291 305 302 274 274 295 316 332 336 334 331 328 326 322 317 317 316 318 322 325 324 320 319 318 316 312 303 298 299 297 295 293 292 291 287 279 270 261 263 270 272 274 276 279 283 286 287 287 288 292 294 294 296 295 290 282 273 263 253 247 248 248 243 244 244 244 246 244 240 238 248 228 200 218 221 225 227 224
266 272 270 272 276 279 284 287 293 292 271 268 284 299 316 323 319 316 315 314 307 302 304 304 308 316 319 319 317 316 317 317 314 304 298 298 296 295 293 288 286 283 276 265 262 271 272 268 272 276 280 286 290 291 291 290 291 293 293 293 293 291 285 277 270 261 253 250 246 241 239 236 233 234 228 223 230 243 237 221 203 199 222 232 227
273 273 271 273 277 282 283 280 282 286 274 269 277 285 297 306 307 306 306 304 296 291 293 295 303 312 314 315 314 314 316 315 312 304 296 296 297 297 293 286 280 275 267 261 266 275 273 270 274 279 282 287 294 298 299 298 297 297 295 292 289 288 284 280 275 268 258 251 247 243 239 236 235 231 215 205 209 229 234 243 218 203 220 236 233
278 277 276 276 279 281 281 278 280 285 279 272 273 274 284 298 301 299 299 298 290 285 285 292 305 312 312 313 313 313 314 312 307 299 293 295 298 297 293 284 273 265 260 262 270 275 273 270 270 276 282 288 296 302 304 303 302 300 296 290 286 283 282 280 275 268 259 250 245 243 242 241 240 240 234 217 212 225 231 245 230 207 219 235 235
285 287 285 280 279 279 278 277 276 278 280 282 281 275 279 296 299 293 293 294 287 280 285 298 308 312 313 314 313 313 313 310 305 296 290 294 296 297 299 292 277 270 273 278 282 280 269 262 265 274 283 292 298 302 303 303 301 299 294 287 281 278 277 276 272 268 260 249 244 244 245 243 241 243 242 232 223 226 231 243 234 212 218 233 225
293 295 292 283 283 283 285 284 280 280 283 289 288 276 275 292 297 291 291 292 284 279 293 306 311 313 314 314 313 313 311 308 303 294 291 294 294 296 303 305 297 289 286 284 281 274 265 266 274 280 286 294 299 301 301 299 296 293 290 284 276 271 270 270 269 268 261 251 246 248 248 244 244 245 243 236 229 225 224 229 229 219 228 233 212
309 307 303 300 301 302 304 302 294 288 285 288 286 274 271 289 295 291 292 290 284 291 306 312 313 314 315 315 314 313 310 306 300 293 290 291 291 297 304 304 301 294 287 281 275 274 278 285 288 289 292 295 298 300 299 295 291 289 287 283 274 266 264 264 265 265 261 255 251 249 247 245 246 247 244 239 233 228 226 225 222 216 233 233 204
317 316 314 314 314 314 313 309 303 295 289 289 285 273 276 294 296 291 288 286 293 308 314 315 315 316 315 315 314 312 309 304 299 294 290 290 292 298 301 299 296 293 290 290 289 291 294 296 296 295 295 296 297 298 294 290 288 286 284 281 274 264 260 261 263 263 260 257 252 248 245 243 245 246 244 242 238 234 231 228 222 214 223 231 215
315 317 316 317 318 317 317 315 310 303 297 295 291 285 296 304 299 291 287 297 312 318 318 317 317 316 315 315 313 311 307 303 300 296 294 295 296 296 296 295 294 293 293 297 299 298 298 298 297 296 295 295 294 292 288 285 285 283 280 278 274 267 261 260 261 260 258 256 252 247 242 240 243 243 241 241 241 237 234 231 226 220 220 224 224
319 320 317 318 322 325 326 323 319 315 309 305 303 307 313 309 300 298 312 322 321 319 318 317 317 316 315 314 312 309 306 301 298 296 295 295 295 293 293 294 294 292 297 305 304 301 298 296 294 293 292 291 289 286 284 283 282 280 278 276 273 268 261 259 259 257 257 255 250 246 241 238 240 239 238 239 240 239 236 234 230 225 222 220 226
325 324 323 327 332 333 332 328 326 325 323 322 322 322 320 312 308 323 327 325 321 320 320 319 318 316 314 312 311 308 304 300 298 299 300 300 301 302 301 300 301 301 304 305 304 302 299 296 292 290 289 287 284 283 281 280 278 277 276 275 272 267 259 257 256 255 254 253 248 244 239 237 236 235 236 239 238 239 238 236 233 228 224 222 223
324 328 334 335 335 334 333 331 330 333 338 337 333 330 328 327 331 332 329 326 324 324 323 320 317 315 313 311 309 306 303 299 299 306 309 307 309 310 307 305 304 302 300 300 299 298 295 293 293 291 288 286 284 281 279 277 275 273 271 271 270 266 259 255 255 254 253 250 246 242 238 236 234 232 233 236 236 237 238 238 236 231 226 224 222
330 341 338 333 335 338 338 339 341 345 346 341 334 330 335 339 337 335 331 327 325 324 323 319 316 314 313 310 308 306 305 302 301 303 304 304 307 307 306 304 301 298 296 294 293 290 286 286 287 287 287 285 282 280 279 274 268 265 266 268 269 266 259 254 252 251 250 248 243 240 237 235 231 229 230 233 234 236 237 238 238 234 229 225 221
347 344 336 338 349 351 349 351 351 348 343 337 329 328 338 340 337 334 330 326 324 324 323 320 317 314 312 310 309 307 307 306 306 305 304 305 306 305 305 303 300 298 294 291 288 284 282 281 280 281 284 283 279 278 278 272 265 264 265 266 267 265 258 252 250 247 246 245 240 236 235 233 229 227 228 230 233 235 236 237 237 235 232 227 222
349 344 351 0 4 359 353 349 344 339 336 331 327 331 341 341 339 335 329 325 324 324 322 319 316 314 311 311 311 310 309 310 312 314 312 310 308 305 304 302 300 298 293 289 286 284 281 277 276 277 279 279 277 275 277 275 270 271 272 269 269 267 257 248 245 246 244 240 236 232 231 229 227 225 226 229 232 233 234 235 236 236 234 231 227
349 0 7 4 358 352 345 339 336 335 334 333 334 340 344 343 340 333 326 326 327 326 323 320 316 314 312 313 313 314 313 312 314 314 311 309 307 304 301 299 298 296 294 292 288 286 283 276 272 273 276 279 280 279 283 284 283 287 285 280 280 281 271 254 243 242 242 238 232 229 228 226 224 223 225 228 230 231 232 232 234 236 235 234 230
1 12 3 354 350 348 343 340 342 342 340 340 341 341 338 335 333 330 329 330 328 324 323 321 318 316 315 317 317 317 315 313 311 309 306 306 305 302 300 298 296 296 297 297 294 289 283 275 274 283 289 291 291 289 289 288 288 292 290 285 283 287 289 277 253 241 239 238 232 228 227 224 220 222 225 227 228 229 230 230 231 235 236 235 232
9 5 354 349 349 348 347 346 346 342 338 336 335 332 330 331 334 336 335 329 324 323 323 322 321 320 318 318 318 316 314 310 307 305 304 303 301 299 298 297 296 296 297 296 295 291 285 283 292 299 297 294 292 290 288 286 286 287 286 285 285 285 290 292 277 251 240 239 235 231 229 225 221 221 223 225 226 228 229 228 228 232 235 235 231
1 354 346 346 348 348 345 343 341 337 334 332 330 330 333 338 339 337 331 325 324 326 325 324 324 322 319 317 314 311 309 307 305 304 302 300 299 298 298 297 295 294 293 292 292 291 292 295 296 295 293 290 287 285 284 282 282 281 278 279 284 286 286 290 290 274 253 242 236 233 232 230 227 226 225 225 225 226 228 228 229 230 231 232 229
352 349 347 348 350 347 343 340 338 336 335 336 338 339 341 340 336 332 329 328 329 329 327 326 325 323 320 317 314 311 309 308 307 305 304 304 302 300 298 297 295 292 291 290 290 290 291 292 291 289 287 285 282 279 276 275 275 274 273 274 277 281 283 285 287 284 270 252 239 235 235 235 236 234 233 231 229 229 228 227 229 231 228 228 227
342 347 354 356 349 342 341 340 339 339 340 344 346 343 337 333 331 331 332 332 332 331 330 328 326 324 322 321 319 317 315 314 313 312 311 309 307 304 301 298 296 293 291 290 289 289 288 288 288 286 284 281 278 274 270 268 269 269 270 271 271 273 277 279 279 279 276 264 247 239 239 239 240 239 237 235 235 234 231 225 226 228 227 225 224
340 348 356 355 345 342 343 342 343 344 342 342 344 341 336 333 332 333 333 333 333 332 331 329 327 326 325 324 323 321 320 318 316 315 313 311 310 308 305 303 299 296 293 292 290 289 288 286 285 283 281 278 275 272 268 264 263 263 264 265 267 268 269 270 271 271 272 268 256 245 241 240 241 240 238 239 238 237 234 230 228 229 227 223 221
345 354 353 347 343 346 348 346 344 341 338 337 340 340 337 334 333 333 333 333 333 332 331 330 328 327 326 325 324 323 321 320 318 316 314 312 311 308 305 303 300 297 295 293 291 288 286 285 283 282 280 277 274 272 268 261 258 257 257 257 259 261 262 262 263 263 265 266 260 250 243 240 239 237 235 238 239 238 235 233 233 233 232 228 224
353 356 349 342 344 348 348 344 340 339 338 340 341 338 335 335 335 334 333 334 333 332 331 330 329 327 327 326 325 324 321 320 318 316 314 312 310 307 305 302 300 298 295 291 288 285 285 285 283 280 279 278 278 274 266 260 257 254 252 251 252 253 255 255 255 256 257 260 258 252 245 239 236 232 231 233 237 237 236 233 233 234 234 233 230
356 351 344 343 346 347 344 341 339 339 339 340 340 337 334 335 335 334 334 333 333 332 331 329 328 328 327 326 325 323 321 319 317 316 314 313 311 308 305 302 300 297 292 288 285 284 285 288 286 283 283 285 286 282 272 262 258 254 250 248 247 247 248 248 249 250 250 252 252 249 244 239 234 228 227 231 235 236 236 233 232 232 232 231 229
352 346 343 346 347 344 341 340 340 340 339 338 339 336 334 335 334 334 334 334 332 331 329 328 328 328 327 326 324 322 320 318 317 317 315 313 310 307 305 303 301 298 294 291 292 292 292 295 295 294 293 292 292 291 281 268 261 256 250 246 244 242 243 243 243 243 244 246 246 241 237 235 231 225 223 227 233 236 235 232 229 227 227 227 224
347 343 344 347 346 341 340 340 340 339 338 338 338 337 335 335 335 334 334 333 332 330 329 328 328 327 326 326 324 322 320 318 318 318 316 313 311 309 308 306 304 302 300 300 301 302 301 302 302 299 296 294 295 295 287 274 266 259 252 246 242 238 237 237 238 238 239 241 242 237 232 231 230 228 226 226 230 233 233 230 224 221 221 221 219
343 341 343 348 345 340 338 338 338 338 338 337 337 337 335 335 335 335 333 333 332 331 330 329 328 327 326 326 324 322 319 319 319 318 316 315 314 313 313 313 310 307 306 304 305 306 306 307 308 305 298 297 303 307 300 286 273 262 252 244 239 235 232 232 233 234 234 236 238 236 235 235 235 236 234 231 230 230 230 226 221 217 215 214 215
342 339 340 345 343 338 337 337 336 337 337 337 336 336 336 334 334 334 333 333 333 331 330 330 328 327 326 325 323 321 319 318 319 317 315 315 315 314 316 318 314 310 311 311 311 312 312 312 312 311 306 302 307 314 311 300 290 283 270 247 234 230 228 227 229 231 232 232 233 234 236 237 239 239 238 235 231 228 226 223 218 213 210 210 213
342 338 337 341 339 336 336 336 336 337 337 336 336 336 336 334 334 334 334 333 333 332 331 329 327 326 325 324 324 322 320 318 316 315 314 314 315 315 318 320 316 311 312 313 314 314 313 311 310 311 310 305 304 310 314 308 306 315 321 284 236 226 224 224 225 227 229 231 231 232 234 235 237 239 238 234 229 226 224 222 217 211 208 208 210
340 337 336 338 336 335 336 336 337 337 336 336 336 336 336 334 334 334 334 334 333 332 331 328 326 325 325 324 325 323 322 319 317 317 317 318 319 320 322 322 317 312 312 313 314 313 312 313 314 313 313 309 307 315 324 321 314 315 326 329 275 228 222 222 221 221 224 227 230 232 234 236 238 242 242 236 228 224 223 222 217 211 206 207 209
338 336 336 336 335 336 336 336 336 335 334 335 336 336 336 335 334 335 334 334 333 330 329 327 325 325 325 326 326 325 324 323 321 320 321 321 322 323 324 323 321 319 319 319 320 318 315 317 322 322 323 323 320 324 329 326 318 311 309 316 314 273 235 224 219 217 218 221 225 228 232 234 237 241 242 237 229 224 222 221 216 210 207 209 210
335 334 336 336 336 336 335 334 333 332 333 335 336 336 335 334 334 335 333 332 331 329 328 327 326 326 327 328 328 328 327 327 326 325 325 326 327 327 326 326 326 325 324 323 323 322 319 321 325 326 328 332 331 331 333 329 319 312 307 300 295 293 287 256 230 219 215 217 220 223 227 231 234 235 235 233 229 225 222 219 215 213 214 214 211
333 334 337 337 335 334 333 333 332 332 333 335 336 336 335 333 334 333 332 331 331 330 330 329 328 328 329 329 331 331 331 331 331 332 330 329 331 331 329 328 327 326 325 323 323 324 322 323 328 331 333 337 340 338 337 336 325 312 307 301 285 272 272 277 269 248 230 219 216 217 222 228 232 233 231 229 227 227 223 218 216 217 218 217 212
333 334 337 337 335 333 333 331 331 332 334 336 337 336 334 333 332 331 332 332 332 332 331 330 330 330 331 332 332 333 335 334 334 334 332 329 331 333 331 331 329 326 325 324 324 327 326 324 328 333 337 341 344 344 340 340 336 318 303 299 291 273 259 257 260 262 257 246 232 224 222 224 228 231 231 227 225 226 225 222 220 218 217 215 210
332 332 334 336 334 332 331 330 330 333 335 337 337 335 333 332 332 332 333 333 333 333 332 332 332 332 333 334 334 335 336 336 336 335 332 330 332 332 331 332 333 330 328 324 324 327 326 323 323 326 331 338 345 348 346 344 340 324 307 299 294 283 267 255 251 253 255 255 251 245 237 231 229 231 233 230 226 226 226 226 224 221 217 214 208
330 331 333 335 333 330 330 329 330 334 337 338 338 335 332 332 333 335 335 334 334 334 333 333 333 334 334 335 336 337 338 338 338 338 335 332 332 331 331 333 335 333 329 323 324 325 323 320 316 315 321 334 344 349 350 351 347 339 332 319 301 286 271 258 252 250 249 248 248 247 246 244 239 237 239 239 237 234 231 230 229 224 217 212 206
330 331 333 334 332 331 332 331 332 335 338 338 338 336 333 332 334 336 336 335 335 335 334 334 334 335 336 337 337 338 339 339 340 340 338 335 333 331 330 331 333 332 328 324 323 322 319 316 314 314 322 335 344 352 3 11 14 17 16 10 355 330 291 261 253 250 248 247 246 244 242 242 240 239 240 243 246 246 241 237 234 227 217 209 203
329 330 331 333 332 332 333 332 332 335 338 338 338 338 336 336 336 337 337 337 337 336 335 335 335 336 337 338 338 338 338 339 340 341 340 340 339 337 332 329 329 328 325 322 320 318 317 315 315 320 333 341 343 354 15 24 24 26 26 22 19 15 5 319 259 247 242 241 243 242 238 235 232 232 235 239 242 245 244 242 237 228 218 210 204
328 329 331 332 332 332 332 331 331 334 337 338 338 338 339 339 339 339 340 339 338 338 336 335 336 337 338 339 339 338 338 338 339 340 340 339 340 339 334 333 335 332 325 325 326 326 328 328 325 328 337 339 343 1 23 25 20 21 21 18 18 17 15 11 341 275 247 238 239 238 235 230 225 224 227 227 226 230 236 239 237 229 221 215 209
326 329 330 331 331 331 330 330 331 334 337 338 338 339 341 341 341 341 341 340 339 337 336 336 337 338 338 339 339 339 339 339 338 340 342 342 343 342 337 338 344 344 341 344 347 346 346 348 350 358 3 0 5 17 22 20 16 15 14 12 12 13 12 11 2 335 241 211 208 205 204 203 202 204 206 203 199 201 209 217 218 212 207 204 200
325 327 329 330 331 331 330 330 331 335 337 338 338 340 342 343 343 343 343 341 339 337 336 337 338 338 338 338 338 339 340 340 340 340 341 343 349 352 351 349 350 351 353 357 357 356 0 5 12 22 25 24 23 20 15 12 11 9 9 10 11 9 10 9 359 346 23 118 118 117 120 140 161 172 175 172 170 167 156 143 148 163 169 171 174
325 327 328 330 331 332 332 331 333 336 338 338 339 341 343 344 344 345 344 342 341 338 336 336 337 337 337 338 338 338 340 340 341 342 341 341 346 351 354 357 358 356 357 359 1 3 8 12 16 21 23 22 20 17 14 11 10 9 9 12 11 10 14 12 355 345 30 70 76 79 76 83 107 123 130 138 142 140 136 132 129 132 142 151 158